DECAYED
Showing default

XJS E, 45251 (Decayed)

Orbit data source: Space-Track

XJS E, 45251 was a payload satellite owned by Harbin (CN) in LEO that was launched on Wed, 19 Feb 2020 UTC via a CHANG ZHENG 2D launch vehicle from the Xichang Space Center, China (XSC). Payloads include a variety of satellites, spacecraft, and rockets equipped with specific instruments for various scientific and technological missions. These include communications satellites like Starlink; space stations such as the ISS; scientific satellites like the Hubble; Earth observation satellites from companies like Planet Labs, Umbra, and HawkEye 360; GPS; miniature CubeSats for education and research; and military/defense satellites.

Not visible in the next 10 days
XJS E details
Identifier
45251, 2020-014C
Orbit
Decayed
Last TLE update9 months ago
Origin
Flag of CNHarbin (CN / PRC)
ManufacturerHarbin
MissionDecayed Civil Technology
Bus & MotorUnknown
Mass500 kg wet, 500 kg dry
Launch date (UTC)
2020-02-19 (5 years ago)
Launch vehicle
CHANG ZHENG 2D
Launch site
Xichang Space Center, China (XSC)
Object type
Payload
Rocket body
Debris
Shape & HBRBox + 2 Pan, Unknown HBR
Radar Cross Section0.446 m², Large (>1 m²)

Expand to show TLE details & history

TLE from 9 months ago
0 XJS E
1 45251U 20014C   24100.53376843  .08568485  13520-5  71805-3 0  9994
2 45251  35.0216  36.8737 0007634 230.7084 292.0228 16.38395432233146
Epoch: 2024-04-09T12:48Z
Definitive object data (Epoch: 2024-04-09T12:48:37.592Z)
Latitude9.87286°
Longitude172.16361°
Altitude166.311 km
Speed7.811 km/s
True Right ascension13h 30m 18s
True Declination9° 48' 35"
Sunlit
Object was in full shadow at TLE epoch
Visualization observer readout
Observer readout values are unavailable because the object's trajectory could not be propagated. This is usually caused when the trajectory data is faulty or the object's orbit has decayed.
Visualization observer readout
Observer readout values are unavailable because the object's trajectory could not be propagated. This is usually caused when the trajectory data is faulty or the object's orbit has decayed.
Orbital elements
Apogee altitude178.484 km
Perigee altitude168.481 km
Semi-major axis6,551.62 km
Eccentricity0.0007634
Inclination35.0216°
RAAN36.8737°
Arg. of periapsis230.7084°
True anomaly291.94167°
Mean anomaly292.0228°
Eccentric anomaly291.98224°
Mean motion4.0928 °/min
BSTAR0.00071805
Orbital period87.96 mins
Loading maneuver chart data...
Loading historical data...
Loading historical data...
Loading historical data...
Loading historical data...
Loading historical data...
Loading historical data...
Loading historical data...

XJS E Visibility forecast

Observer location: undefined°, undefined

This satellite is decayed
Span
Click to sort rows by Start time (UTC) header in descending order
Start Az.
Max El. time (UTC)
Max El. Az.
Max El.
End time (UTC)
End Az.
|